Time,TemperatureF,DewpointF,PressureIn,WindDirection,WindDirectionDegrees,WindSpeedMPH,WindSpeedGustMPH,Humidity,HourlyPrecipIn,Conditions,Clouds,dailyrainin,SoftwareType,DateUTC
2013-09-23 00:14:00,60.0,53.0,30.05,ESE,117,11.0,14.0,78,0.00,,,0.00,,2013-09-23 04:14:00,
2013-09-23 00:24:00,59.0,53.0,30.06,ESE,121,10.0,14.0,80,0.00,,,0.00,,2013-09-23 04:24:00,
2013-09-23 00:43:00,59.0,54.0,30.06,SE,141,9.0,13.0,82,0.00,,,0.00,,2013-09-23 04:43:00,
2013-09-23 00:54:00,58.0,53.0,30.06,ESE,113,7.0,13.0,83,0.00,,,0.00,,2013-09-23 04:54:00,
2013-09-23 01:12:00,58.0,53.0,30.06,SE,124,7.0,12.0,83,0.00,,,0.00,,2013-09-23 05:12:00,
2013-09-23 01:23:00,58.0,53.0,30.07,SE,126,7.0,12.0,83,0.00,,,0.00,,2013-09-23 05:23:00,
2013-09-23 01:43:00,58.0,53.0,30.07,SE,129,11.0,13.0,84,0.00,,,0.00,,2013-09-23 05:43:00,
2013-09-23 01:53:00,58.0,53.0,30.07,SE,131,8.0,12.0,83,0.00,,,0.00,,2013-09-23 05:53:00,
2013-09-23 02:13:00,58.0,53.0,30.07,SSE,149,9.0,12.0,84,0.00,,,0.00,,2013-09-23 06:13:00,
2013-09-23 02:22:00,59.0,54.0,30.07,SE,139,8.0,9.0,82,0.00,,,0.00,,2013-09-23 06:22:00,
2013-09-23 02:52:00,58.0,52.0,30.07,SE,132,9.0,9.0,81,0.00,,,0.00,,2013-09-23 06:52:00,
2013-09-23 03:12:00,58.0,52.0,30.07,SE,127,11.0,12.0,80,0.00,,,0.00,,2013-09-23 07:12:00,
2013-09-23 03:22:00,58.0,52.0,30.07,ESE,122,10.0,13.0,80,0.00,,,0.00,,2013-09-23 07:22:00,
2013-09-23 03:42:00,57.0,51.0,30.07,SE,129,10.0,15.0,80,0.00,,,0.00,,2013-09-23 07:42:00,
2013-09-23 03:52:00,57.0,52.0,30.07,SE,127,10.0,14.0,82,0.00,,,0.00,,2013-09-23 07:52:00,
2013-09-23 04:11:00,56.0,51.0,30.07,ESE,107,8.0,12.0,84,0.00,,,0.00,,2013-09-23 08:11:00,
2013-09-23 04:23:00,56.0,52.0,30.07,ESE,122,7.0,11.0,85,0.00,,,0.00,,2013-09-23 08:23:00,
2013-09-23 04:42:00,55.0,50.0,30.07,ESE,122,8.0,12.0,82,0.00,,,0.00,,2013-09-23 08:42:00,
2013-09-23 04:52:00,56.0,51.0,30.08,SE,126,8.0,14.0,82,0.00,,,0.00,,2013-09-23 08:52:00,
2013-09-23 05:11:00,56.0,50.0,30.08,SE,127,10.0,15.0,81,0.00,,,0.00,,2013-09-23 09:11:00,
2013-09-23 05:22:00,56.0,50.0,30.08,SE,129,13.0,14.0,79,0.00,,,0.00,,2013-09-23 09:22:00,
2013-09-23 05:43:00,56.0,50.0,30.08,SE,127,12.0,15.0,79,0.00,,,0.00,,2013-09-23 09:43:00,
2013-09-23 05:53:00,55.0,49.0,30.09,SE,132,8.0,14.0,81,0.00,,,0.00,,2013-09-23 09:53:00,
2013-09-23 06:13:00,55.0,49.0,30.09,ESE,122,8.0,17.0,81,0.00,,,0.00,,2013-09-23 10:13:00,
2013-09-23 06:23:00,55.0,50.0,30.10,SE,129,9.0,12.0,82,0.00,,,0.00,,2013-09-23 10:23:00,
2013-09-23 06:42:00,55.0,49.0,30.10,ESE,121,7.0,14.0,81,0.00,,,0.00,,2013-09-23 10:42:00,
2013-09-23 06:53:00,55.0,50.0,30.11,ESE,106,8.0,12.0,82,0.00,,,0.00,,2013-09-23 10:53:00,
2013-09-23 07:12:00,55.0,50.0,30.11,SE,126,9.0,12.0,83,0.00,,,0.00,,2013-09-23 11:12:00,
2013-09-23 07:22:00,54.0,49.0,30.11,ESE,115,10.0,13.0,83,0.00,,,0.00,,2013-09-23 11:22:00,
2013-09-23 07:42:00,54.0,50.0,30.12,ESE,115,9.0,13.0,85,0.00,,,0.00,,2013-09-23 11:42:00,
2013-09-23 07:52:00,54.0,49.0,30.12,ESE,122,10.0,14.0,84,0.00,,,0.00,,2013-09-23 11:52:00,
2013-09-23 08:11:00,54.0,49.0,30.14,ESE,115,10.0,14.0,83,0.00,,,0.00,,2013-09-23 12:11:00,
2013-09-23 08:22:00,53.0,48.0,30.14,ESE,109,12.0,14.0,84,0.00,,,0.00,,2013-09-23 12:22:00,
2013-09-23 08:52:00,53.0,49.0,30.15,East,101,11.0,13.0,86,0.00,,,0.00,,2013-09-23 12:52:00,
2013-09-23 09:11:00,53.0,49.0,30.15,ESE,116,10.0,13.0,86,0.00,,,0.00,,2013-09-23 13:11:00,
2013-09-23 09:22:00,53.0,49.0,30.16,East,99,10.0,12.0,87,0.00,,,0.00,,2013-09-23 13:22:00,
2013-09-23 09:42:00,53.0,50.0,30.16,East,100,10.0,13.0,88,0.00,,,0.00,,2013-09-23 13:42:00,
2013-09-23 09:52:00,52.0,49.0,30.16,ESE,107,8.0,11.0,89,0.00,,,0.00,,2013-09-23 13:52:00,
2013-09-23 10:12:00,52.0,49.0,30.17,ESE,104,8.0,11.0,90,0.00,,,0.00,,2013-09-23 14:12:00,
2013-09-23 10:22:00,52.0,49.0,30.16,ESE,116,9.0,11.0,91,0.00,,,0.00,,2013-09-23 14:22:00,
2013-09-23 10:42:00,52.0,49.0,30.16,ESE,110,9.0,11.0,91,0.00,,,0.00,,2013-09-23 14:42:00,
2013-09-23 10:52:00,53.0,51.0,30.16,ESE,110,8.0,10.0,93,0.00,,,0.00,,2013-09-23 14:52:00,
2013-09-23 11:12:00,53.0,51.0,30.16,ESE,115,7.0,9.0,93,0.00,,,0.00,,2013-09-23 15:12:00,
2013-09-23 11:22:00,54.0,51.0,30.16,East,100,5.0,9.0,91,0.00,,,0.00,,2013-09-23 15:22:00,
2013-09-23 11:43:00,54.0,52.0,30.17,ESE,119,5.0,9.0,92,0.00,,,0.00,,2013-09-23 15:43:00,
2013-09-23 11:54:00,55.0,53.0,30.17,East,99,4.0,7.0,93,0.00,,,0.00,,2013-09-23 15:54:00,
2013-09-23 12:12:00,55.0,53.0,30.18,SE,129,5.0,7.0,92,0.00,,,0.00,,2013-09-23 16:12:00,
2013-09-23 12:24:00,56.0,54.0,30.18,ESE,105,4.0,9.0,92,0.00,,,0.00,,2013-09-23 16:24:00,
2013-09-23 12:53:00,56.0,54.0,30.17,SE,125,4.0,9.0,92,0.00,,,0.00,,2013-09-23 16:53:00,
2013-09-23 13:12:00,56.0,53.0,30.17,SE,135,5.0,9.0,91,0.00,,,0.00,,2013-09-23 17:12:00,
2013-09-23 13:24:00,56.0,54.0,30.17,SE,124,4.0,5.0,92,0.00,,,0.00,,2013-09-23 17:24:00,
2013-09-23 13:42:00,56.0,54.0,30.17,SE,135,4.0,6.0,93,0.00,,,0.00,,2013-09-23 17:42:00,
2013-09-23 13:52:00,56.0,54.0,30.17,SE,146,5.0,8.0,93,0.00,,,0.00,,2013-09-23 17:52:00,
2013-09-23 14:13:00,57.0,55.0,30.17,SSE,156,4.0,7.0,92,0.00,,,0.00,,2013-09-23 18:13:00,
2013-09-23 14:22:00,57.0,55.0,30.17,SSE,147,6.0,8.0,93,0.00,,,0.00,,2013-09-23 18:22:00,
2013-09-23 14:52:00,58.0,56.0,30.17,SSE,163,4.0,7.0,92,0.00,,,0.00,,2013-09-23 18:52:00,
2013-09-23 15:12:00,58.0,56.0,30.17,SSE,160,3.0,7.0,92,0.00,,,0.00,,2013-09-23 19:12:00,
2013-09-23 15:42:00,58.0,55.0,30.17,South,191,4.0,8.0,90,0.00,,,0.00,,2013-09-23 19:42:00,
2013-09-23 15:53:00,60.0,57.0,30.16,SSW,201,4.0,9.0,89,0.00,,,0.00,,2013-09-23 19:53:00,
2013-09-23 16:12:00,60.0,56.0,30.16,SSW,210,6.0,9.0,88,0.00,,,0.00,,2013-09-23 20:12:00,
2013-09-23 16:22:00,60.0,56.0,30.16,SW,226,5.0,9.0,87,0.00,,,0.00,,2013-09-23 20:22:00,
2013-09-23 16:52:00,61.0,57.0,30.16,SSW,205,4.0,10.0,86,0.00,,,0.00,,2013-09-23 20:52:00,
2013-09-23 17:12:00,61.0,56.0,30.15,SW,225,5.0,9.0,84,0.00,,,0.00,,2013-09-23 21:12:00,
2013-09-23 17:23:00,62.0,57.0,30.16,NW,309,5.0,9.0,83,0.00,,,0.00,,2013-09-23 21:23:00,
2013-09-23 17:44:00,62.0,57.0,30.16,West,271,8.0,10.0,83,0.00,,,0.00,,2013-09-23 21:44:00,
2013-09-23 17:54:00,62.0,56.0,30.15,WSW,253,4.0,8.0,82,0.00,,,0.00,,2013-09-23 21:54:00,
2013-09-23 18:13:00,63.0,58.0,30.15,West,276,5.0,8.0,83,0.00,,,0.00,,2013-09-23 22:13:00,
2013-09-23 18:24:00,62.0,56.0,30.15,WSW,242,5.0,7.0,82,0.00,,,0.00,,2013-09-23 22:24:00,
2013-09-23 18:43:00,62.0,56.0,30.15,West,265,4.0,7.0,81,0.00,,,0.00,,2013-09-23 22:43:00,
2013-09-23 18:54:00,62.0,56.0,30.15,WSW,252,6.0,7.0,82,0.00,,,0.00,,2013-09-23 22:54:00,
2013-09-23 19:12:00,62.0,56.0,30.15,WSW,257,7.0,8.0,82,0.00,,,0.00,,2013-09-23 23:12:00,
2013-09-23 19:22:00,61.0,55.0,30.16,West,260,6.0,7.0,82,0.00,,,0.00,,2013-09-23 23:22:00,
2013-09-23 19:54:00,60.0,55.0,30.16,WSW,238,7.0,7.0,85,0.00,,,0.00,,2013-09-23 23:54:00,
2013-09-23 20:12:00,60.0,55.0,30.16,SW,233,7.0,8.0,85,0.00,,,0.00,,2013-09-24 00:12:00,
2013-09-23 20:22:00,60.0,56.0,30.16,WSW,248,8.0,8.0,86,0.00,,,0.00,,2013-09-24 00:22:00,
2013-09-23 20:43:00,59.0,55.0,30.16,WSW,249,8.0,8.0,86,0.00,,,0.00,,2013-09-24 00:43:00,
2013-09-23 20:52:00,59.0,55.0,30.16,WSW,246,9.0,9.0,86,0.00,,,0.00,,2013-09-24 00:52:00,
2013-09-23 21:12:00,59.0,55.0,30.16,WSW,251,10.0,11.0,86,0.00,,,0.00,,2013-09-24 01:12:00,
2013-09-23 21:22:00,59.0,55.0,30.16,WSW,240,9.0,9.0,86,0.00,,,0.00,,2013-09-24 01:22:00,
2013-09-23 21:43:00,59.0,55.0,30.17,WSW,245,9.0,10.0,86,0.00,,,0.00,,2013-09-24 01:43:00,
2013-09-23 21:52:00,59.0,55.0,30.17,WSW,240,11.0,11.0,86,0.00,,,0.00,,2013-09-24 01:52:00,
2013-09-23 22:12:00,59.0,55.0,30.17,SW,236,12.0,12.0,86,0.00,,,0.00,,2013-09-24 02:12:00,
2013-09-23 22:23:00,59.0,55.0,30.18,WSW,246,13.0,13.0,88,0.00,,,0.00,,2013-09-24 02:23:00,
2013-09-23 22:42:00,59.0,56.0,30.18,WSW,250,13.0,13.0,89,0.00,,,0.00,,2013-09-24 02:42:00,
2013-09-23 22:52:00,59.0,55.0,30.19,West,260,11.0,13.0,88,0.00,,,0.00,,2013-09-24 02:52:00,
2013-09-23 23:12:00,59.0,55.0,30.19,WSW,248,12.0,12.0,88,0.00,,,0.00,,2013-09-24 03:12:00,
2013-09-23 23:22:00,59.0,55.0,30.19,WSW,256,12.0,12.0,88,0.00,,,0.00,,2013-09-24 03:22:00,
2013-09-23 23:44:00,59.0,55.0,30.19,West,263,11.0,12.0,88,0.00,,,0.00,,2013-09-24 03:44:00,
2013-09-23 23:55:00,59.0,56.0,30.20,WSW,251,11.0,12.0,89,0.00,,,0.00,,2013-09-24 03:55:00,